User: anonymous   Login
Location: NJAA Observatory
(40.6819°N, 74.8979°W)
Time: 17:00:42
(UTC-05:00)
Language:

Cosmos 1633 - Orbit

View from above orbital plane
View from above orbital plane
View from above satellite
View from above satellite

Ground track
Ground track

The orbit data is extracted from the following two-line orbital elements,

1 15592U 85020A   17328.09612359 +.00001861 +00000-0 +64576-4 0  9991
2 15592 082.5366 159.0455 0012916 338.0703 021.9982 15.29055690788440
Epoch (UTC): 24 November 2017 02:18:25
Eccentricity: 0.0012916
inclination: 82.5366°
perigee height: 470 km
apogee height: 487 km
right ascension of ascending node: 159.0455°
argument of perigee: 338.0703°
revolutions per day: 15.29055690
mean anomaly at epoch: 21.9982°
orbit number at epoch: 78844

The dashed part of the orbit path shows where the satellite is in the earth's shadow,  

DLR